Time,TemperatureF,DewpointF,PressureIn,WindDirection,WindDirectionDegrees,WindSpeedMPH,WindSpeedGustMPH,Humidity,HourlyPrecipIn,Conditions,Clouds,dailyrainin,SoftwareType,DateUTC
2013-07-17 00:00:00,72.5,69.4,30.09,North,-999,0.0,0.0,90,0.00,,,-99.99,WeatherLink 5.6,2013-07-17 04:00:00,
2013-07-17 00:30:00,71.6,69.2,30.09,North,-999,0.0,0.0,92,0.00,,,-99.99,WeatherLink 5.6,2013-07-17 04:30:00,
2013-07-17 01:00:00,72.5,69.4,30.09,North,-999,0.0,0.0,90,0.00,,,-99.99,WeatherLink 5.6,2013-07-17 05:00:00,
2013-07-17 01:30:00,72.1,69.0,30.08,North,-999,0.0,0.0,90,0.00,,,-99.99,WeatherLink 5.6,2013-07-17 05:30:00,
2013-07-17 02:00:00,71.7,68.9,30.07,North,-999,0.0,0.0,91,0.00,,,-99.99,WeatherLink 5.6,2013-07-17 06:00:00,
2013-07-17 02:30:00,71.1,68.7,30.07,North,-999,0.0,0.0,92,0.00,,,-99.99,WeatherLink 5.6,2013-07-17 06:30:00,
2013-07-17 03:00:00,71.6,68.2,30.06,North,-999,0.0,0.0,89,0.00,,,-99.99,WeatherLink 5.6,2013-07-17 07:00:00,
2013-07-17 03:30:00,71.0,68.2,30.06,North,-999,0.0,0.0,91,0.00,,,-99.99,WeatherLink 5.6,2013-07-17 07:30:00,
2013-07-17 04:00:00,70.8,68.0,30.07,North,-999,0.0,0.0,91,0.00,,,-99.99,WeatherLink 5.6,2013-07-17 08:00:00,
2013-07-17 04:30:00,70.9,68.1,30.06,North,-999,0.0,0.0,91,0.00,,,-99.99,WeatherLink 5.6,2013-07-17 08:30:00,
2013-07-17 05:00:00,70.6,68.2,30.07,North,-999,0.0,0.0,92,0.00,,,-99.99,WeatherLink 5.6,2013-07-17 09:00:00,
2013-07-17 05:30:00,70.1,68.0,30.08,North,-999,0.0,0.0,93,0.00,,,-99.99,WeatherLink 5.6,2013-07-17 09:30:00,
2013-07-17 06:00:00,69.9,67.8,30.09,North,-999,0.0,0.0,93,0.00,,,-99.99,WeatherLink 5.6,2013-07-17 10:00:00,
2013-07-17 06:30:00,69.6,67.5,30.09,North,-999,0.0,0.0,93,0.00,,,-99.99,WeatherLink 5.6,2013-07-17 10:30:00,
2013-07-17 07:00:00,69.6,67.8,30.09,North,-999,0.0,0.0,94,0.00,,,-99.99,WeatherLink 5.6,2013-07-17 11:00:00,
2013-07-17 07:30:00,70.8,69.0,30.10,North,-999,0.0,0.0,94,0.00,,,-99.99,WeatherLink 5.6,2013-07-17 11:30:00,
2013-07-17 08:00:00,72.2,69.1,30.11,North,-999,0.0,0.0,90,0.00,,,-99.99,WeatherLink 5.6,2013-07-17 12:00:00,
2013-07-17 08:30:00,73.2,69.8,30.12,North,-999,0.0,0.0,89,0.00,,,-99.99,WeatherLink 5.6,2013-07-17 12:30:00,
2013-07-17 09:00:00,73.7,70.3,30.12,North,-999,0.0,0.0,89,0.00,,,-99.99,WeatherLink 5.6,2013-07-17 13:00:00,
2013-07-17 09:30:00,75.1,71.3,30.12,North,-999,0.0,0.0,88,0.00,,,-99.99,WeatherLink 5.6,2013-07-17 13:30:00,
2013-07-17 10:00:00,76.3,72.1,30.11,NNE,22,0.0,3.0,87,0.00,,,-99.99,WeatherLink 5.6,2013-07-17 14:00:00,
2013-07-17 10:30:00,76.1,71.6,30.11,NE,45,1.0,6.0,86,0.00,,,-99.99,WeatherLink 5.6,2013-07-17 14:30:00,
2013-07-17 11:00:00,76.9,72.4,30.10,North,0,0.0,6.0,86,0.00,,,-99.99,WeatherLink 5.6,2013-07-17 15:00:00,
2013-07-17 11:30:00,78.7,74.2,30.09,North,0,0.0,6.0,86,0.00,,,-99.99,WeatherLink 5.6,2013-07-17 15:30:00,
2013-07-17 12:00:00,79.4,74.1,30.09,NNW,337,1.0,9.0,84,0.00,,,-99.99,WeatherLink 5.6,2013-07-17 16:00:00,
2013-07-17 12:30:00,78.9,72.9,30.09,North,0,0.0,5.0,82,0.00,,,-99.99,WeatherLink 5.6,2013-07-17 16:30:00,
2013-07-17 13:00:00,79.1,72.8,30.08,NNW,337,0.0,5.0,81,0.00,,,-99.99,WeatherLink 5.6,2013-07-17 17:00:00,
2013-07-17 13:30:00,79.7,74.4,30.07,NNW,337,0.0,7.0,84,0.00,,,-99.99,WeatherLink 5.6,2013-07-17 17:30:00,
2013-07-17 14:00:00,80.2,74.6,30.06,WNW,292,1.0,10.0,83,0.00,,,-99.99,WeatherLink 5.6,2013-07-17 18:00:00,
2013-07-17 14:30:00,79.6,73.6,30.03,NW,315,0.0,6.0,82,0.00,,,-99.99,WeatherLink 5.6,2013-07-17 18:30:00,
2013-07-17 15:00:00,80.0,75.1,30.01,NW,315,1.0,10.0,85,0.00,,,-99.99,WeatherLink 5.6,2013-07-17 19:00:00,
2013-07-17 15:30:00,81.5,75.1,30.00,NW,315,0.0,4.0,81,0.00,,,-99.99,WeatherLink 5.6,2013-07-17 19:30:00,
2013-07-17 16:00:00,80.4,74.4,30.01,NNE,22,1.0,10.0,82,0.00,,,-99.99,WeatherLink 5.6,2013-07-17 20:00:00,
2013-07-17 16:30:00,75.1,70.6,30.01,WNW,292,5.0,12.0,86,0.00,,,-99.99,WeatherLink 5.6,2013-07-17 20:30:00,
2013-07-17 17:00:00,74.7,70.2,30.01,NW,315,2.0,9.0,86,0.00,,,-99.99,WeatherLink 5.6,2013-07-17 21:00:00,
2013-07-17 17:30:00,73.8,70.0,30.01,WNW,292,3.0,13.0,88,0.00,,,-99.99,WeatherLink 5.6,2013-07-17 21:30:00,
2013-07-17 18:00:00,72.6,70.1,30.03,WNW,292,3.0,12.0,92,0.00,,,-99.99,WeatherLink 5.6,2013-07-17 22:00:00,
2013-07-17 18:30:00,71.1,69.3,30.04,WNW,292,2.0,11.0,94,0.00,,,-99.99,WeatherLink 5.6,2013-07-17 22:30:00,
2013-07-17 19:00:00,71.2,69.1,30.03,North,-999,0.0,0.0,93,0.00,,,-99.99,WeatherLink 5.6,2013-07-17 23:00:00,
2013-07-17 19:30:00,71.3,69.5,30.03,North,-999,0.0,0.0,94,0.00,,,-99.99,WeatherLink 5.6,2013-07-17 23:30:00,
2013-07-17 20:00:00,68.6,66.8,30.06,South,180,4.0,17.0,94,0.00,,,-99.99,WeatherLink 5.6,2013-07-18 00:00:00,
2013-07-17 20:30:00,69.2,67.4,30.06,SSW,202,3.0,14.0,94,0.01,,,-99.99,WeatherLink 5.6,2013-07-18 00:30:00,
2013-07-17 21:00:00,69.2,68.0,30.07,WSW,247,1.0,7.0,96,0.25,,,-99.99,WeatherLink 5.6,2013-07-18 01:00:00,
2013-07-17 21:30:00,67.9,66.7,30.08,North,-999,0.0,0.0,96,0.24,,,-99.99,WeatherLink 5.6,2013-07-18 01:30:00,
2013-07-17 22:00:00,68.0,67.1,30.08,West,270,0.0,4.0,97,0.05,,,-99.99,WeatherLink 5.6,2013-07-18 02:00:00,
2013-07-17 22:30:00,67.7,66.8,30.07,WNW,292,1.0,4.0,97,0.10,,,-99.99,WeatherLink 5.6,2013-07-18 02:30:00,
2013-07-17 23:00:00,67.7,67.1,30.04,West,270,1.0,9.0,98,0.05,,,-99.99,WeatherLink 5.6,2013-07-18 03:00:00,
2013-07-17 23:30:00,67.7,67.1,30.03,WNW,292,0.0,7.0,98,0.00,,,-99.99,WeatherLink 5.6,2013-07-18 03:30:00,